FW4072 Weather Reports


Display with metric or nautical units.
time (UTC)temp
F
wind
direction
speed
MPH
gust
MPH
rain 1hr
in
rain 24hr
in
rain mn
in
humidity
%
barometer
mb
20260902025408 62 0.0 0.0 0.00 0.00 0.00 84 1021.1
20260902024508 62 0.0 0.0 0.00 0.00 0.00 84 1021.1
20260902023607 62 0.0 0.0 0.00 0.00 0.00 84 1021.1
20260902022707 62 0.0 0.0 0.00 0.00 0.00 84 1020.9
20260902021806 62 0.0 0.0 0.00 0.00 0.00 84 1020.9
20260902020905 63 0.0 0.0 0.00 0.00 0.00 84 1020.8
20260902015104 63 0.0 0.0 0.00 0.00 0.00 84 1020.8
20260902014204 63 0.0 0.0 0.00 0.00 0.00 84 1020.7
20260902013303 63 0.0 0.0 0.00 0.00 0.00 84 1020.7
20260902012424 63 0.0 0.0 0.00 0.00 0.00 83 1020.8
20260902011502 63 0.0 0.0 0.00 0.00 0.00 83 1020.9
20260902010601 63 0.0 0.0 0.00 0.00 0.00 83 1020.9
20260902005701 63 0.0 0.0 0.00 0.00 0.00 82 1020.7
20260902004759 63 0.0 0.0 0.00 0.00 0.00 82 1020.6
20260902003859 64 0.0 0.0 0.00 0.00 0.00 81 1020.7
20260902002118 64 0.0 0.0 0.00 0.00 0.00 81 1020.7
20260902001157 64 0.0 2.0 0.00 0.00 0.00 81 1020.7
20260902000322 65 0.0 0.0 0.00 0.00 0.00 80 1020.7
20260901235356 65 0.0 0.0 0.00 0.00 0.00 80 1020.6
20260901234456 65 0.0 0.0 0.00 0.00 0.00 80 1020.6
20260901233555 65 0.0 0.0 0.00 0.00 0.00 79 1020.6
20260901232654 65 0.0 0.0 0.00 0.00 0.00 79 1020.6
20260901231753 66 0.0 1.0 0.00 0.00 0.00 79 1020.6
20260901230853 66 0.0 2.0 0.00 0.00 0.00 78 1020.5
20260901225112 66 0.0 0.0 0.00 0.00 0.00 78 1020.4
20260901224151 67 0.0 0.0 0.00 0.00 0.00 78 1020.4
20260901223311 67 0.0 1.0 0.00 0.00 0.00 78 1020.4
20260901222352 67 0.0 1.0 0.00 0.00 0.00 78 1020.4
20260901221450 67 0.0 2.0 0.00 0.00 0.00 78 1020.4
20260901220630 67 0.0 1.0 0.00 0.00 0.00 78 1020.4
20260901215648 67 0.0 1.0 0.00 0.00 0.00 78 1020.3
20260901214747 67 0.0 1.0 0.00 0.00 0.00 78 1020.4
20260901213846 67 0.0 1.0 0.00 0.00 0.00 78 1020.3
20260901212045 67 0.0 1.0 0.00 0.00 0.00 78 1020.3
20260901211146 68 0.0 1.0 0.00 0.00 0.00 77 1020.2
20260901210244 68 0.0 0.0 0.00 0.00 0.00 77 1020.2
20260901205343 68 0.0 2.0 0.00 0.00 0.00 77 1020.1
20260901204443 68 0.0 0.0 0.00 0.00 0.00 77 1019.9
20260901203542 68 0.0 1.0 0.00 0.00 0.00 76 1019.8
20260901202641 69 0.0 1.0 0.00 0.00 0.00 76 1019.9
20260901201740 69 0.0 2.0 0.00 0.00 0.00 75 1019.8
20260901200900 69 0.0 1.0 0.00 0.00 0.00 74 1019.9
20260901195059 69 0.0 2.0 0.00 0.00 0.00 74 1019.8
20260901194130 69 0.0 1.0 0.00 0.00 0.00 74 1019.8
20260901193232 69 0.0 2.0 0.00 0.00 0.00 74 1019.9
20260901192329 69 0.0 1.0 0.00 0.00 0.00 72 1019.9
20260901191430 70 0.0 0.0 0.00 0.00 0.00 71 1019.8
20260901190528 70 0.0 0.0 0.00 0.00 0.00 71 1019.8
20260901185623 70 0.0 0.0 0.00 0.00 0.00 70 1019.6
20260901184722 70 0.0 0.0 0.00 0.00 0.00 69 1019.6
20260901183821 71 0.0 1.0 0.00 0.00 0.00 67 1019.5
20260901182020 71 0.0 1.0 0.00 0.00 0.00 66 1019.4
20260901181120 72 0.0 2.0 0.00 0.00 0.00 65 1019.2
20260901180240 72 1.0 3.0 0.00 0.00 0.00 65 1019.2
20260901175318 72 0.0 0.0 0.00 0.00 0.00 62 1019.1
20260901174419 73 1.0 3.0 0.00 0.00 0.00 60 1019.1
20260901173518 73 0.0 2.0 0.00 0.00 0.00 58 1019.0
20260901172616 74 0.0 1.0 0.00 0.00 0.00 56 1018.9
20260901171712 74 0.0 1.0 0.00 0.00 0.00 55 1018.8
20260901170810 75 0.0 2.0 0.00 0.00 0.00 54 1018.7
20260901165909 75 0.0 2.0 0.00 0.00 0.00 51 1018.4
20260901164108 76 0.0 2.0 0.00 0.00 0.00 50 1018.5
20260901163207 76 135 1.0 3.0 0.00 0.00 0.00 49 1018.4
20260901162307 77 0.0 2.0 0.00 0.00 0.00 47 1018.3
20260901161408 78 1.0 4.0 0.00 0.00 0.00 44 1018.4
20260901160505 79 2.0 5.0 0.00 0.00 0.00 41 1018.4
20260901155605 79 135 2.0 6.0 0.00 0.00 0.00 39 1018.4
20260901154704 80 0.0 2.0 0.00 0.00 0.00 36 1018.3
20260901153800 80 135 2.0 4.0 0.00 0.00 0.00 34 1018.4
20260901152918 82 135 1.0 5.0 0.00 0.00 0.00 26 1018.1
20260901151056 83 0.0 0.0 0.00 0.00 0.00 18 1017.9
20260901150216 84 0.0 0.0 0.00 0.00 0.00 18 1017.9
20260901145257 84 0.0 0.0 0.00 0.00 0.00 18 1017.8
20260901144356 85 0.0 0.0 0.00 0.00 0.00 15 1017.7
20260901143455 85 0.0 0.0 0.00 0.00 0.00 14 1017.6
20260901142553 86 0.0 0.0 0.00 0.00 0.00 11 1017.6
20260901141652 87 0.0 0.0 0.00 0.00 0.00 11 1017.7
20260901140752 88 0.0 0.0 0.00 0.00 0.00 1017.7
20260901135846 88 0.0 0.0 0.00 0.00 0.00 1017.7
20260901134045 89 0.0 1.0 0.00 0.00 0.00 1017.7
20260901133145 89 0.0 0.0 0.00 0.00 0.00 1017.7
20260901132246 89 0.0 0.0 0.00 0.00 0.00 1017.7
20260901131343 88 0.0 0.0 0.00 0.00 0.00 1017.7
20260901130443 87 0.0 0.0 0.00 0.00 0.00 1017.9
20260901125544 87 0.0 0.0 0.00 0.00 0.00 1017.8
20260901124643 87 0.0 0.0 0.00 0.00 0.00 1017.8
20260901123801 88 0.0 1.0 0.00 0.00 0.00 1017.9
20260901122840 88 0.0 1.0 0.00 0.00 0.00 1018.1
20260901121059 88 0.0 0.0 0.00 0.00 0.00 1018.3
20260901120131 89 0.0 1.0 0.00 0.00 0.00 1018.1
20260901115230 89 0.0 2.0 0.00 0.00 0.00 1018.2
20260901114329 89 0.0 0.0 0.00 0.00 0.00 1018.1
20260901113429 89 135 1.0 3.0 0.00 0.00 0.00 1018.2
20260901112528 89 0.0 1.0 0.00 0.00 0.00 1018.2
20260901111622 89 0.0 2.0 0.00 0.00 0.00 1018.0
20260901110723 89 0.0 0.0 0.00 0.00 0.00 1018.1
20260901105843 91 0.0 1.0 0.00 0.00 0.00 1018.1
20260901104020 92 135 1.0 4.0 0.00 0.00 0.00 1018.1
20260901103119 93 1.0 7.0 0.00 0.00 0.00 1018.1
20260901102218 92 0.0 4.0 0.00 0.00 0.00 1018.1
20260901101318 92 135 1.0 2.0 0.00 0.00 0.00 1018.1
20260901100417 91 135 1.0 2.0 0.00 0.00 0.00 1018.0
20260901095517 92 113 1.0 2.0 0.00 0.00 0.00 1018.1
20260901094616 92 135 2.0 4.0 0.00 0.00 0.00 1018.1
20260901093711 91 113 1.0 4.0 0.00 0.00 0.00 1018.1
20260901092850 91 131 1.0 4.0 0.00 0.00 0.00 1018.1
20260901091909 92 158 1.0 3.0 0.00 0.00 0.00 1018.2
20260901090108 89 0.0 2.0 0.00 0.00 0.00 1018.1
20260901085207 89 158 2.0 6.0 0.00 0.00 0.00 1018.1
20260901084307 90 135 2.0 4.0 0.00 0.00 0.00 1018.3
20260901083406 89 1.0 4.0 0.00 0.00 0.00 1018.1
20260901082507 87 135 2.0 4.0 0.00 0.00 0.00 11 1018.4
20260901081604 86 0.0 3.0 0.00 0.00 0.00 11 1018.5
20260901080704 86 1.0 5.0 0.00 0.00 0.00 12 1018.4
20260901075818 85 0.0 2.0 0.00 0.00 0.00 16 1018.4
20260901074858 81 0.0 2.0 0.00 0.00 0.00 21 1018.6
20260901073056 79 0.0 0.0 0.00 0.00 0.00 22 1018.5
20260901072216 79 0.0 2.0 0.00 0.00 0.00 22 1018.5
20260901071255 80 0.0 1.0 0.00 0.00 0.00 23 1018.4
20260901070416 80 0.0 2.0 0.00 0.00 0.00 23 1018.4
20260901065454 81 0.0 2.0 0.00 0.00 0.00 23 1018.4
20260901064553 82 0.0 4.0 0.00 0.00 0.00 25 1018.3
20260901063653 81 0.0 0.0 0.00 0.00 0.00 27 1018.2
20260901062752 81 0.0 2.0 0.00 0.00 0.00 27 1018.4
20260901061907 80 0.0 3.0 0.00 0.00 0.00 30 1018.3
20260901060046 78 0.0 0.0 0.00 0.00 0.00 35 1018.2
20260901055145 76 0.0 1.0 0.00 0.00 0.00 38 1018.3
20260901054325 75 135 1.0 2.0 0.00 0.00 0.00 41 1018.2
20260901053344 73 0.0 0.0 0.00 0.00 0.00 46 1018.2
20260901052443 70 0.0 0.0 0.00 0.00 0.00 51 1018.3
20260901051544 67 0.0 1.0 0.00 0.00 0.00 54 1018.3
20260901050641 65 0.0 0.0 0.00 0.00 0.00 58 1018.4
20260901045741 64 0.0 0.0 0.00 0.00 0.00 61 1018.5
20260901044841 62 0.0 0.0 0.00 0.00 0.00 64 1018.3
20260901043037 61 0.0 0.0 0.00 0.00 0.00 67 1018.2
20260901042131 61 0.0 0.0 0.00 0.00 0.00 68 1018.3
20260901041230 60 0.0 0.0 0.00 0.00 0.00 68 1018.1
20260901040329 60 0.0 0.0 0.00 0.00 0.00 69 1018.2
20260901035429 60 0.0 0.0 0.00 0.00 0.00 69 1018.2
20260901034528 60 0.0 0.0 0.00 0.00 0.00 69 1018.2
20260901033622 60 0.0 0.0 0.00 0.00 0.00 69 1018.1
20260901032744 60 0.0 0.0 0.00 0.00 0.00 69 1018.1
20260901031821 60 0.0 0.0 0.00 0.00 0.00 67 1018.0